Location: Home
(42.5358°N, 72.7383°W)
Time: 14:11:59
(UTC-05:00)

Explorer 11/Cluster Stage 4 - Pass Details

Date: 14 December 2025
Orbit: 463 x 1179 km, 28.8° (Epoch: 21 January)

Event Time Altitude Azimuth Distance (km) Brightness Sun altitude
Rises 19:20:45 0° 241° (WSW) 3,996 11.1 -32.6°
Reaches altitude 10° 19:24:14 10° 229° (SW) 2,967 10.1 -33.3°
Enters shadow 19:29:09 24° 188° (S) 1,991 8.6 -34.2°
